Temperature
18 17 17 16 15 15 14 14 14 14 13 13 13 13 13 13 13 13 13 13 13 13 13 13 13 13 13 13 13 13 13 13 14 14 14 14 14 14 14 14 14 14 15
18 17 17 16 16 15 15 14 14 14 14 13 13 13 13 13 13 13 13 13 13 13 13 13 13 13 13 13 13 13 13 13 13 13 13 13 14 14 14 14 14 14 14
18 17 17 16 16 16 15 14 14 14 14 14 14 13 13 13 13 13 13 13 13 13 13 13 13 13 13 13 13 13 13 13 13 13 13 13 13 13 13 14 14 14 14
18 18 17 17 16 16 15 15 14 14 14 14 14 14 13 13 13 13 13 13 13 13 13 13 13 13 12 12 13 13 13 13 13 13 13 13 13 13 13 13 13 13 14
18 18 18 17 17 16 16 15 15 14 14 14 14 14 14 14 13 13 13 13 13 13 13 13 13 13 12 12 12 12 12 12 13 13 13 13 13 13 13 13 13 13 13
19 18 18 17 17 16 16 16 15 15 15 14 14 14 14 14 14 14 13 13 13 13 13 13 13 13 13 12 12 12 12 12 12 12 12 12 12 12 12 12 13 13 13
18 18 18 17 17 16 16 16 15 15 15 15 15 14 14 14 14 14 14 13 13 13 13 13 13 13 13 13 12 12 12 12 12 12 12 12 12 12 12 12 12 12 12
18 18 17 17 17 17 16 16 16 16 15 15 15 15 14 14 14 14 14 13 13 13 13 13 13 13 13 13 12 13 12 12 12 12 12 12 12 12 12 12 12 12 12
17 17 17 17 17 17 17 16 16 16 16 15 15 15 15 15 14 14 14 14 13 13 13 13 13 13 13 13 12 13 12 12 12 12 12 12 12 12 12 12 12 12 12
16 16 16 16 17 17 17 17 16 16 16 16 15 15 15 15 15 14 14 14 14 13 13 13 13 13 13 13 13 12 12 12 12 12 12 12 12 12 12 12 11 11 11
15 16 16 16 16 17 17 17 17 16 16 16 15 15 15 15 15 14 14 14 14 14 13 13 13 13 13 13 12 12 12 12 12 12 12 12 11 11 11 11 11 11 11
14 15 15 16 16 16 16 16 16 16 16 16 16 15 15 15 15 15 14 14 14 14 14 13 13 13 13 12 12 12 12 12 12 12 11 11 11 11 11 11 11 11 11
14 14 14 15 15 15 15 16 16 16 16 16 16 16 16 15 15 15 14 14 14 14 14 13 13 12 12 12 12 12 12 12 12 11 11 11 11 11 11 11 10 10 10
12 13 13 14 14 14 14 14 15 15 15 15 15 16 16 16 15 15 15 14 14 14 14 13 13 12 12 12 12 12 12 11 11 11 11 11 11 11 10 10 10 10 10
11 12 12 12 13 13 14 14 14 14 14 14 15 15 15 15 16 15 15 15 14 14 13 13 12 12 12 12 12 12 11 11 11 11 11 11 10 10 10 10 10 9 9
10 10 11 11 12 12 12 13 14 14 14 14 14 14 15 15 15 15 15 14 14 14 13 13 13 12 12 12 12 11 11 11 11 11 10 10 10 10 10 9 9 9 9
9 9 9 10 10 11 11 11 12 13 14 14 14 14 14 14 14 14 14 14 13 13 13 13 13 12 12 12 11 11 11 11 10 10 10 10 9 9 9 9 9 8 8
9 8 9 9 9 9 10 10 10 11 12 13 14 14 14 14 14 14 14 13 13 13 13 13 13 12 12 12 11 11 11 10 10 10 9 9 9 9 9 8 8 8 8
8 8 8 8 8 9 9 9 9 10 10 11 12 13 13 13 13 13 13 13 13 13 13 13 12 12 12 11 11 11 10 10 10 9 9 9 8 8 8 8 8 7 7
7 7 7 7 7 8 8 8 9 9 9 10 11 11 12 12 12 12 12 12 13 13 13 13 12 12 12 11 11 10 10 10 9 9 9 8 8 8 8 7 7 7 6
7 7 7 7 7 7 7 7 8 8 8 9 10 10 10 11 11 12 12 12 12 12 12 12 12 12 11 11 10 10 10 9 9 9 8 8 8 7 7 7 6 6 6
6 6 6 6 6 6 6 7 7 7 8 8 9 9 9 10 10 10 11 12 12 12 12 12 11 11 11 10 10 10 9 9 9 8 8 8 7 7 6 6 6 5 5
6 6 6 5 5 5 6 6 6 7 7 7 8 8 9 9 9 10 10 11 11 11 11 11 11 10 10 10 10 9 9 9 9 8 8 7 7 6 6 6 5 5 5
6 5 5 5 5 5 5 5 6 6 6 7 7 8 8 8 9 9 9 10 10 10 10 10 10 10 10 9 9 9 9 8 8 8 7 7 6 6 5 5 5 4 4
5 5 5 5 5 5 5 5 5 5 6 6 6 7 7 8 8 9 9 9 9 10 10 10 10 9 9 9 8 8 8 8 7 7 7 6 6 5 5 5 4 4 3
5 5 4 4 4 4 4 4 4 4 5 5 6 6 6 7 7 8 8 8 9 9 9 9 9 9 8 8 8 8 7 7 7 6 6 5 5 5 4 4 4 3 3
Wind_Speed
8 8 7 7 6 5 5 6 5 4 4 4 3 3 2 2 1 1 0 0 0 0 1 1 0 1 1 1 1 1 1 2 2 1 1 1 1 2 3 3 3 2 2
8 8 8 7 6 6 6 6 5 5 5 4 3 3 3 3 2 2 2 1 1 1 1 1 1 1 2 1 1 1 1 1 2 1 1 1 1 1 2 2 2 3 2
8 8 8 7 8 8 8 6 6 6 5 4 4 4 4 4 3 3 3 2 2 2 2 2 2 2 2 1 1 1 1 1 1 2 0 1 1 1 2 2 2 2 2
8 9 10 10 10 9 8 7 7 6 6 6 5 5 5 4 4 4 3 3 2 2 2 2 2 3 3 3 2 2 2 2 2 2 1 1 1 1 1 1 2 2 2
8 10 11 10 9 8 8 8 7 7 7 6 5 5 5 4 5 5 5 4 3 3 2 2 3 5 5 4 3 3 3 2 2 2 1 0 0 0 0 0 1 2 2
8 10 9 8 8 9 9 8 7 7 7 6 6 6 6 6 8 9 7 5 4 4 4 3 3 3 4 5 4 5 5 4 3 3 2 2 2 2 1 1 1 1 1
6 7 7 8 9 10 9 8 9 9 7 7 8 7 7 9 11 10 11 7 6 6 5 4 3 3 4 2 2 3 3 4 5 5 4 4 3 4 3 1 1 2 2
4 6 6 7 10 9 9 10 10 8 8 8 8 9 8 9 12 11 11 7 6 6 6 6 5 4 4 5 4 2 2 1 2 3 4 4 4 4 3 3 3 1 1
5 6 7 7 9 9 11 12 10 8 9 8 7 9 9 10 12 12 10 6 6 7 6 6 7 6 7 7 5 4 2 2 2 2 4 3 3 4 5 3 2 1 0
8 8 7 6 8 11 12 12 9 9 10 9 9 9 10 10 12 14 13 6 6 6 5 6 9 9 9 9 7 6 5 4 2 1 1 0 0 1 4 3 3 2 2
9 8 7 6 7 9 10 9 8 9 9 9 10 9 10 11 12 14 15 9 8 7 6 6 7 11 11 11 10 7 8 5 4 3 2 1 1 1 1 1 2 3 3
9 8 8 7 6 6 7 7 8 9 9 10 9 9 8 9 11 12 16 16 12 9 8 7 7 11 12 11 9 8 9 6 4 3 2 2 1 1 0 1 1 2 2
10 10 9 8 6 6 6 7 6 7 9 9 9 10 9 7 9 15 16 17 17 10 8 10 10 11 10 8 9 10 8 5 5 4 4 3 2 2 1 1 2 3 4
10 10 9 9 8 7 5 5 6 7 8 9 9 10 9 7 7 8 8 10 13 11 7 8 10 9 7 7 6 5 5 6 6 5 4 3 2 2 2 2 2 1 2
9 9 9 8 8 7 6 6 8 9 10 10 10 10 9 10 13 15 12 10 10 10 8 5 4 4 5 4 4 4 4 5 5 4 4 4 3 3 2 2 2 2 2
8 8 8 8 8 7 7 8 9 11 14 15 15 12 11 14 13 16 18 17 16 16 10 6 7 8 8 8 7 5 5 6 5 5 5 5 5 4 4 2 2 3 3
7 8 7 8 8 8 7 8 10 9 10 12 14 15 15 14 14 15 17 17 17 18 9 8 9 10 9 8 8 7 6 6 6 6 6 6 5 5 4 4 3 3 3
7 9 9 7 8 8 8 8 8 9 9 8 8 13 14 14 14 15 14 12 9 12 8 9 10 10 9 9 9 7 7 6 6 6 6 6 6 5 5 4 4 4 3
7 7 7 7 8 8 8 8 8 9 9 8 6 6 10 10 11 13 15 9 11 12 11 10 9 9 9 9 9 9 9 8 8 7 7 7 6 5 5 5 5 5 4
7 12 12 8 8 8 8 8 8 8 9 8 8 7 4 4 5 8 10 10 10 11 11 11 10 10 10 10 9 9 9 8 9 7 7 7 7 6 7 7 6 5 3
6 9 14 10 8 8 8 9 9 9 9 9 9 8 9 8 10 10 11 11 11 11 11 10 10 10 10 9 10 10 11 9 9 8 8 8 8 7 6 6 6 5 4
7 7 7 8 8 8 9 9 9 9 10 11 9 8 12 9 9 9 10 10 10 9 9 10 10 10 10 11 11 11 11 10 10 9 9 8 8 7 7 6 6 5 4
7 8 8 8 8 11 11 9 9 10 10 10 9 8 8 9 9 9 10 9 8 8 8 9 10 9 9 9 10 12 12 12 11 12 11 10 9 8 7 7 7 5 4
7 8 9 9 9 9 10 10 10 11 11 10 10 9 9 9 10 10 9 8 8 8 9 10 10 13 14 11 9 10 10 12 13 12 14 12 10 8 7 7 6 6 5
7 8 9 9 10 10 10 11 11 11 11 11 10 10 9 9 9 9 8 8 9 10 11 11 10 12 16 16 13 12 16 20 18 15 12 11 11 10 8 7 6 5 4
8 9 9 9 9 10 10 11 12 11 11 11 11 10 9 9 9 9 8 9 9 10 10 10 12 14 16 15 17 19 22 22 21 19 14 10 10 9 9 7 7 6 5
Wind_Direction
204 204 205 208 210 209 215 227 231 237 235 238 237 237 245 247 250 234 252 176 144 14 62 112 115 123 90 68 79 96 107 126 149 263 293 323 357 12 7 27 35 26 354
206 203 209 208 204 209 222 229 225 231 235 233 229 230 238 235 225 219 233 212 195 195 183 147 161 141 116 105 112 118 124 142 152 175 326 352 5 356 3 15 16 22 2
199 203 209 208 208 215 223 227 221 223 231 226 220 229 235 230 225 224 216 216 217 223 212 199 197 155 153 156 146 135 121 109 128 152 201 359 7 7 21 20 28 14 4
201 205 212 215 213 216 219 221 218 216 220 220 222 227 227 223 218 216 207 211 220 234 230 218 207 193 191 184 173 170 147 116 113 122 123 22 4 353 40 32 15 7 350
206 212 221 219 215 214 217 219 217 215 220 217 216 225 225 220 218 208 207 208 210 224 237 234 227 217 210 198 186 182 163 147 135 132 149 92 333 20 20 353 8 342 341
215 224 226 217 215 216 218 216 215 218 219 212 215 218 222 229 227 212 200 203 206 210 222 235 244 240 228 212 202 185 176 168 172 170 181 194 224 214 190 160 139 43 326
233 237 231 221 221 222 219 212 215 217 212 214 218 214 223 234 235 225 210 196 206 211 213 218 226 215 207 196 207 192 195 203 187 175 182 200 200 200 173 170 185 191 230
270 263 250 234 231 227 217 218 219 212 209 215 217 215 221 235 232 228 216 200 208 216 214 211 212 218 206 186 173 170 195 228 212 192 193 202 200 188 177 177 180 182 269
311 291 275 250 241 230 224 226 220 210 213 213 213 211 216 234 230 224 208 190 210 222 220 213 210 216 223 193 173 182 202 256 257 202 196 195 195 184 164 133 133 120 1
318 302 293 272 252 240 233 229 219 212 218 215 218 214 214 226 228 221 202 189 206 220 221 221 219 215 219 198 185 186 202 222 196 158 118 74 92 146 164 164 166 158 170
316 311 303 289 270 255 244 231 218 215 217 217 221 222 218 224 228 221 203 194 203 209 214 219 222 219 218 207 194 197 210 191 169 161 144 111 76 77 92 151 170 167 171
326 323 315 303 294 287 257 240 223 213 216 221 224 231 228 225 223 223 211 206 200 198 211 213 213 211 209 203 197 204 197 170 150 147 147 157 159 165 155 114 145 151 139
336 332 324 315 303 299 277 253 235 219 222 227 223 232 235 223 221 221 217 212 205 203 212 206 203 202 198 197 200 194 180 165 161 166 180 190 190 175 127 101 75 90 82
332 331 329 323 313 304 296 271 246 233 231 231 228 232 233 224 219 215 213 213 207 207 205 199 193 190 180 175 178 184 179 178 177 180 179 169 145 130 120 116 109 102 94
328 326 327 325 314 306 294 277 261 245 234 232 235 229 224 231 227 208 198 201 196 192 167 152 157 165 176 179 175 173 172 170 177 168 161 157 154 142 127 109 106 98 110
325 325 322 321 316 309 304 302 280 263 257 245 240 235 233 232 226 207 203 200 189 172 159 175 187 190 192 191 187 182 180 183 180 171 166 166 164 157 143 119 106 116 123
311 311 312 315 315 310 305 302 304 302 277 256 248 240 236 233 223 210 203 196 185 172 180 192 193 195 196 192 189 186 187 184 173 169 168 167 160 153 146 141 133 121 118
302 308 312 303 304 303 298 292 289 291 294 285 260 244 238 232 222 211 194 173 184 189 199 198 199 196 192 190 189 187 180 169 167 168 165 163 160 154 152 152 151 145 140
297 297 297 297 296 296 296 292 288 284 282 281 281 265 240 229 218 206 182 190 195 200 204 204 200 194 190 188 185 182 178 176 171 168 167 163 161 153 154 155 153 147 139
289 301 310 302 300 299 300 296 292 289 286 279 268 260 230 201 210 204 202 206 205 204 202 202 199 193 188 184 179 176 174 172 170 168 167 164 162 159 159 159 159 155 155
282 293 304 305 297 294 295 294 289 286 283 279 270 254 228 223 223 216 210 210 210 208 203 199 194 189 184 180 177 176 174 174 172 169 166 163 161 158 156 156 156 153 150
276 278 282 285 290 290 289 289 287 282 281 278 276 263 239 235 233 227 221 217 214 208 199 191 190 188 184 181 178 176 175 173 171 167 164 162 160 157 153 153 153 155 157
273 278 282 284 285 290 291 286 285 281 278 277 271 261 244 237 237 233 228 220 209 201 192 187 185 183 181 179 177 175 175 176 173 167 162 160 160 159 158 158 159 159 168
271 276 280 284 285 284 286 285 284 282 279 276 270 259 248 241 239 236 228 217 204 196 189 187 185 182 175 173 171 169 167 163 159 161 158 158 159 158 157 157 161 165 171
270 273 277 280 284 284 286 286 283 281 280 278 272 263 253 246 242 237 226 211 200 195 188 184 181 177 173 169 164 163 158 154 152 153 152 152 154 156 157 158 160 160 167
273 276 278 279 279 280 282 285 283 281 280 278 273 265 255 248 241 232 219 207 198 191 185 181 176 171 167 166 161 156 154 153 152 150 149 148 151 155 156 158 160 163 167
Height
1504 1505 1506 1507 1507 1507 1507 1508 1508 1507 1507 1507 1507 1506 1506 1505 1504 1504 1503 1502 1501 1501 1501 1500 1500 1500 1500 1501 1501 1502 1502 1504 1504 1505 1506 1507 1508 1509 1510 1511 1512 1512 1513
1502 1503 1504 1504 1504 1505 1505 1506 1506 1506 1506 1506 1506 1505 1505 1504 1504 1503 1502 1502 1501 1501 1501 1500 1500 1500 1500 1500 1501 1501 1502 1502 1503 1504 1505 1506 1506 1507 1508 1509 1509 1510 1511
1498 1499 1500 1501 1501 1502 1503 1503 1504 1504 1504 1504 1504 1504 1504 1503 1503 1502 1502 1502 1501 1501 1501 1500 1500 1500 1500 1500 1500 1500 1501 1501 1502 1503 1503 1504 1505 1505 1506 1507 1508 1508 1509
1493 1495 1496 1497 1498 1499 1500 1500 1501 1501 1502 1502 1502 1502 1502 1502 1502 1501 1501 1501 1501 1500 1500 1500 1500 1500 1500 1500 1499 1500 1500 1500 1501 1501 1502 1503 1503 1504 1505 1505 1506 1506 1507
1489 1490 1491 1493 1494 1495 1496 1497 1498 1498 1499 1499 1499 1499 1500 1500 1500 1500 1500 1500 1499 1499 1499 1499 1499 1499 1499 1499 1499 1499 1499 1500 1500 1500 1501 1501 1502 1502 1503 1503 1504 1505 1505
1484 1485 1487 1489 1490 1491 1492 1493 1494 1494 1495 1496 1496 1496 1497 1497 1497 1497 1498 1498 1498 1498 1498 1498 1498 1498 1498 1498 1498 1498 1498 1499 1499 1499 1499 1500 1500 1501 1501 1502 1502 1503 1503
1481 1482 1483 1484 1485 1486 1487 1488 1489 1490 1491 1491 1492 1493 1493 1494 1495 1495 1495 1495 1496 1496 1496 1496 1496 1497 1497 1497 1497 1497 1497 1497 1498 1498 1498 1498 1499 1499 1500 1500 1501 1501 1501
1479 1478 1478 1479 1479 1480 1481 1482 1483 1485 1485 1486 1487 1488 1489 1490 1491 1492 1492 1492 1492 1493 1493 1494 1494 1494 1495 1495 1495 1495 1495 1496 1496 1496 1496 1497 1497 1498 1498 1499 1499 1499 1499
1476 1475 1474 1474 1474 1474 1475 1476 1477 1479 1480 1481 1482 1483 1484 1485 1487 1487 1488 1488 1489 1489 1490 1490 1491 1491 1492 1492 1493 1493 1493 1493 1494 1494 1494 1495 1495 1496 1496 1497 1497 1497 1497
1474 1472 1471 1469 1468 1468 1468 1469 1471 1472 1474 1475 1476 1477 1478 1480 1481 1482 1483 1483 1484 1485 1486 1486 1487 1488 1489 1489 1489 1490 1490 1491 1491 1492 1492 1493 1493 1494 1494 1495 1495 1495 1495
1472 1469 1467 1465 1463 1462 1462 1462 1464 1465 1467 1468 1469 1471 1472 1474 1475 1476 1477 1478 1479 1480 1481 1482 1483 1484 1484 1485 1486 1486 1487 1488 1489 1489 1490 1490 1491 1492 1492 1492 1493 1493 1494
1469 1466 1463 1460 1459 1457 1456 1456 1456 1457 1459 1460 1462 1463 1465 1466 1468 1470 1471 1472 1473 1474 1475 1477 1478 1479 1480 1480 1481 1482 1484 1484 1485 1486 1487 1487 1488 1489 1490 1490 1490 1491 1491
1465 1462 1459 1456 1454 1452 1450 1449 1449 1450 1450 1451 1453 1454 1456 1458 1461 1463 1464 1466 1467 1468 1469 1471 1472 1473 1474 1475 1477 1478 1479 1480 1481 1482 1483 1484 1486 1486 1487 1487 1488 1488 1488
1461 1458 1455 1451 1448 1447 1445 1444 1443 1442 1443 1443 1444 1446 1448 1450 1452 1455 1456 1458 1460 1461 1463 1464 1466 1467 1468 1470 1471 1472 1474 1475 1476 1478 1480 1481 1482 1483 1483 1484 1485 1485 1485
1458 1454 1451 1447 1444 1441 1439 1438 1436 1436 1436 1436 1436 1438 1439 1441 1443 1446 1448 1450 1452 1454 1456 1457 1458 1460 1461 1463 1465 1467 1468 1470 1471 1473 1475 1476 1478 1479 1480 1480 1481 1481 1482
1453 1450 1446 1443 1439 1436 1433 1430 1429 1429 1428 1429 1429 1430 1431 1433 1436 1438 1441 1443 1445 1447 1448 1449 1450 1452 1454 1457 1459 1461 1462 1464 1466 1468 1470 1472 1473 1474 1475 1476 1477 1478 1478
1450 1446 1442 1439 1435 1431 1428 1424 1421 1419 1419 1420 1420 1421 1422 1424 1426 1429 1432 1434 1436 1438 1439 1440 1442 1445 1447 1449 1452 1454 1456 1459 1461 1463 1465 1467 1469 1470 1471 1472 1473 1474 1474
1445 1441 1438 1434 1430 1426 1423 1420 1417 1413 1411 1409 1411 1412 1413 1415 1417 1420 1423 1425 1426 1427 1429 1431 1434 1437 1439 1442 1445 1447 1450 1453 1455 1457 1459 1462 1464 1465 1467 1468 1469 1470 1470
1440 1436 1432 1428 1425 1421 1418 1414 1411 1408 1405 1403 1402 1403 1404 1406 1408 1411 1412 1414 1415 1417 1420 1423 1426 1429 1431 1435 1438 1441 1443 1446 1449 1451 1454 1456 1458 1460 1462 1463 1465 1466 1466
1434 1431 1427 1423 1419 1415 1411 1408 1405 1402 1399 1396 1395 1395 1396 1397 1398 1399 1402 1404 1406 1409 1411 1414 1417 1420 1424 1427 1430 1433 1436 1439 1442 1445 1448 1451 1453 1455 1457 1459 1460 1461 1462
1427 1424 1421 1417 1413 1409 1405 1402 1398 1395 1392 1389 1388 1388 1388 1388 1388 1390 1392 1394 1397 1399 1402 1405 1409 1412 1415 1419 1423 1426 1429 1433 1436 1439 1442 1445 1448 1450 1452 1454 1455 1456 1457
1421 1417 1414 1410 1407 1403 1399 1395 1392 1388 1385 1382 1380 1380 1379 1380 1380 1381 1383 1385 1388 1391 1394 1397 1400 1403 1407 1411 1415 1419 1422 1426 1429 1433 1436 1439 1442 1444 1447 1449 1450 1451 1452
1414 1410 1407 1403 1400 1396 1392 1388 1384 1381 1377 1375 1373 1372 1371 1371 1371 1372 1374 1376 1379 1382 1384 1387 1391 1395 1399 1404 1408 1412 1415 1419 1423 1427 1430 1433 1436 1439 1441 1443 1445 1446 1447
1407 1403 1399 1395 1392 1388 1384 1380 1376 1373 1370 1367 1365 1363 1362 1362 1363 1363 1365 1367 1370 1373 1376 1379 1382 1387 1391 1396 1400 1404 1409 1413 1417 1421 1424 1428 1431 1433 1436 1438 1440 1441 1442
1399 1395 1392 1388 1384 1380 1376 1372 1368 1365 1362 1359 1357 1355 1354 1353 1354 1354 1356 1358 1361 1364 1367 1370 1374 1379 1383 1388 1393 1398 1402 1407 1411 1415 1419 1422 1425 1428 1430 1433 1434 1436 1437
1391 1387 1383 1379 1375 1372 1368 1364 1360 1356 1353 1350 1348 1347 1345 1345 1345 1346 1347 1349 1352 1355 1359 1363 1366 1371 1376 1381 1387 1391 1396 1401 1405 1409 1413 1416 1420 1423 1425 1427 1429 1431 1432